FAF75 SOCA-SOOG

Flight info

Callsign FAF75
Flight time N/A
Altitude 5000
Route SOCA SOOG
Aircraft H125/L-V/N

Departure

Time 2026-04-26 19:44
Airport Cayenne – Félix Eboué Airport (SOCA)

Arrival

Time N/A
Airport Saint-Georges-de-l'Oyapock Airport (SOOG)
Time Latitude Longitude Altitude Speed Heading
2026-04-26 19:42 4.84341 -52.29625 727 ft 123 kts 24°
2026-04-26 19:42 4.84792 -52.28844 529 ft 138 kts 67°
2026-04-26 19:42 4.85038 -52.27902 496 ft 140 kts 78°
2026-04-26 19:42 4.85120 -52.26963 372 ft 141 kts 87°
2026-04-26 19:43 4.84984 -52.26116 43 ft 126 kts 104°
2026-04-26 19:43 4.84639 -52.25390 109 ft 107 kts 117°
2026-04-26 19:43 4.84346 -52.24658 349 ft 103 kts 90°
2026-04-26 19:43 4.84625 -52.23968 270 ft 127 kts 56°
2026-04-26 19:44 4.85151 -52.23221 271 ft 136 kts 65°
2026-04-26 19:44 4.85487 -52.22370 407 ft 132 kts 73°
2026-04-26 19:44 4.85572 -52.21453 735 ft 109 kts 83°
2026-04-26 19:44 4.85393 -52.20596 577 ft 145 kts 112°
2026-04-26 19:45 4.84779 -52.19784 444 ft 154 kts 133°
2026-04-26 19:45 4.84027 -52.19037 497 ft 150 kts 134°
2026-04-26 19:45 4.83243 -52.18427 769 ft 139 kts 135°
2026-04-26 19:45 4.82467 -52.17757 700 ft 151 kts 132°
2026-04-26 19:46 4.81665 -52.17083 830 ft 145 kts 133°
2026-04-26 19:46 4.80828 -52.16413 744 ft 140 kts 128°
2026-04-26 19:46 4.80136 -52.15815 713 ft 155 kts 138°
2026-04-26 19:46 4.79251 -52.15146 616 ft 160 kts 137°
2026-04-26 19:47 4.78357 -52.14498 452 ft 160 kts 135°
2026-04-26 19:47 4.78093 -52.14253 571 ft 145 kts 129°
2026-04-26 19:47 4.76864 -52.13043 68 ft 129 kts 128°
2026-04-26 19:47 4.76207 -52.12396 73 ft 136 kts 130°
2026-04-26 19:48 4.75532 -52.11718 96 ft 138 kts 135°
2026-04-26 19:48 4.74687 -52.11271 182 ft 133 kts 156°
2026-04-26 19:48 4.74392 -52.11009 273 ft 53 kts 55°
2026-04-26 19:48 4.74165 -52.10761 326 ft 69 kts 194°
2026-04-26 19:49 4.73815 -52.10878 260 ft 28 kts 180°
2026-04-26 19:49 4.73732 -52.10913 258 ft 11 kts 162°
2026-04-26 19:49 4.73717 -52.10939 138 ft 6 kts 130°
2026-04-26 19:49 4.73712 -52.10930 95 ft 1 kts 174°